• In Österreich
  • Länderverzeichnis
  • Für 7 Tage
  • Wassertemperatur
  • Satellitenkarten
  • Wetterkarte
  • News
  • Widgets
  • user-avatar
    Anmelden

    Stündliche Wetter Aschtarak

    Heute, 19 Juli, Donnerstag

    Zeit Temperatur Niederschläge Wind Luftdruck Luftfeuchtigkeit
    00:00 +21°C° 0,2 mm 3 m/S 653 mmHg 73%
    01:00 +20°C° 0 mm 2 m/S 653 mmHg 74%
    02:00 +20°C° 0 mm 2 m/S 653 mmHg 75%
    03:00 +19°C° 0 mm 2 m/S 653 mmHg 75%
    04:00 +20°C° 0 mm 2 m/S 653 mmHg 74%
    05:00 +20°C° 0 mm 2 m/S 653 mmHg 73%
    06:00 +21°C° 0 mm 1 m/S 654 mmHg 72%
    07:00 +24°C° 0 mm 2 m/S 654 mmHg 62%
    08:00 +26°C° 0 mm 2 m/S 654 mmHg 52%
    09:00 +28°C° 0 mm 2 m/S 655 mmHg 42%
    10:00 +30°C° 0 mm 2 m/S 655 mmHg 37%
    11:00 +31°C° 0 mm 3 m/S 655 mmHg 32%
    12:00 +33°C° 0 mm 3 m/S 655 mmHg 26%
    13:00 +34°C° 0 mm 3 m/S 655 mmHg 25%
    14:00 +34°C° 0 mm 3 m/S 655 mmHg 24%
    15:00 +35°C° 0 mm 4 m/S 655 mmHg 23%
    16:00 +34°C° 0 mm 3 m/S 654 mmHg 27%
    17:00 +32°C° 0 mm 2 m/S 654 mmHg 31%
    18:00 +31°C° 0 mm 2 m/S 654 mmHg 35%
    19:00 +29°C° 0,1 mm 2 m/S 654 mmHg 44%
    20:00 +26°C° 0,1 mm 3 m/S 654 mmHg 53%
    21:00 +24°C° 0,1 mm 3 m/S 654 mmHg 62%
    22:00 +22°C° 0 mm 3 m/S 653 mmHg 66%
    23:00 +21°C° 0 mm 3 m/S 653 mmHg 69%

    Morgen, 20 Juli, Freitag

    Zeit Temperatur Niederschläge Wind Luftdruck Luftfeuchtigkeit
    00:00 +21°C° 0 mm 2 m/S 653 mmHg 73%
    01:00 +20°C° 0 mm 2 m/S 653 mmHg 73%
    02:00 +20°C° 0 mm 2 m/S 653 mmHg 73%
    03:00 +19°C° 0 mm 2 m/S 653 mmHg 73%
    04:00 +20°C° 0 mm 2 m/S 653 mmHg 70%
    05:00 +21°C° 0 mm 2 m/S 653 mmHg 67%
    06:00 +22°C° 0 mm 1 m/S 653 mmHg 64%
    07:00 +24°C° 0 mm 2 m/S 654 mmHg 54%
    08:00 +27°C° 0 mm 2 m/S 654 mmHg 44%
    09:00 +29°C° 0 mm 2 m/S 655 mmHg 34%
    10:00 +30°C° 0 mm 2 m/S 655 mmHg 31%
    11:00 +32°C° 0 mm 2 m/S 655 mmHg 27%
    12:00 +34°C° 0 mm 3 m/S 655 mmHg 24%
    13:00 +34°C° 0 mm 3 m/S 654 mmHg 24%
    14:00 +35°C° 0 mm 3 m/S 654 mmHg 23%
    15:00 +35°C° 0 mm 3 m/S 654 mmHg 23%
    16:00 +34°C° 0,2 mm 3 m/S 654 mmHg 27%
    17:00 +33°C° 0,2 mm 3 m/S 653 mmHg 31%
    18:00 +31°C° 0,2 mm 3 m/S 653 mmHg 35%
    19:00 +29°C° 0,1 mm 3 m/S 653 mmHg 43%
    20:00 +26°C° 0,1 mm 3 m/S 653 mmHg 52%
    21:00 +24°C° 0,1 mm 3 m/S 653 mmHg 60%
    22:00 +22°C° 0 mm 3 m/S 653 mmHg 62%
    23:00 +22°C° 0 mm 3 m/S 653 mmHg 63%

    übermorgen, 21 Juli, Samstag

    Zeit Temperatur Niederschläge Wind Luftdruck Luftfeuchtigkeit
    00:00 +21°C° 0 mm 3 m/S 653 mmHg 64%
    01:00 +21°C° 0,1 mm 3 m/S 653 mmHg 65%
    02:00 +20°C° 0,1 mm 3 m/S 653 mmHg 67%
    03:00 +19°C° 0,1 mm 3 m/S 653 mmHg 68%
    04:00 +20°C° 0 mm 2 m/S 654 mmHg 67%
    05:00 +20°C° 0 mm 2 m/S 654 mmHg 66%
    06:00 +20°C° 0 mm 2 m/S 654 mmHg 65%
    07:00 +23°C° 0 mm 2 m/S 654 mmHg 59%
    08:00 +25°C° 0 mm 2 m/S 655 mmHg 53%
    09:00 +27°C° 0 mm 2 m/S 655 mmHg 47%
    10:00 +28°C° 0 mm 2 m/S 655 mmHg 42%
    11:00 +30°C° 0 mm 2 m/S 655 mmHg 38%
    12:00 +31°C° 0 mm 2 m/S 655 mmHg 34%
    13:00 +31°C° 0,2 mm 2 m/S 655 mmHg 33%
    14:00 +32°C° 0,2 mm 2 m/S 655 mmHg 32%
    15:00 +33°C° 0,2 mm 3 m/S 655 mmHg 32%
    16:00 +31°C° 0,2 mm 3 m/S 654 mmHg 36%
    17:00 +30°C° 0,2 mm 3 m/S 654 mmHg 41%
    18:00 +29°C° 0,2 mm 4 m/S 654 mmHg 46%
    19:00 +27°C° 0,3 mm 4 m/S 654 mmHg 52%
    20:00 +25°C° 0,3 mm 3 m/S 655 mmHg 59%
    21:00 +22°C° 0,3 mm 3 m/S 655 mmHg 66%
    22:00 +22°C° 0,2 mm 3 m/S 655 mmHg 69%
    23:00 +21°C° 0,2 mm 3 m/S 655 mmHg 71%

    22 Juli, Sonntag

    Zeit Temperatur Niederschläge Wind Luftdruck Luftfeuchtigkeit
    00:00 +20°C° 0,2 mm 3 m/S 655 mmHg 74%
    01:00 +20°C° 0,2 mm 3 m/S 655 mmHg 76%
    02:00 +19°C° 0,2 mm 2 m/S 654 mmHg 78%
    03:00 +19°C° 0,2 mm 2 m/S 654 mmHg 80%
    04:00 +19°C° 0,2 mm 2 m/S 654 mmHg 79%
    05:00 +20°C° 0,2 mm 2 m/S 655 mmHg 78%
    06:00 +20°C° 0,2 mm 2 m/S 655 mmHg 77%
    07:00 +23°C° 0 mm 2 m/S 655 mmHg 69%
    08:00 +25°C° 0 mm 2 m/S 655 mmHg 61%
    09:00 +27°C° 0 mm 2 m/S 655 mmHg 53%
    10:00 +28°C° 0 mm 2 m/S 655 mmHg 48%
    11:00 +29°C° 0 mm 2 m/S 655 mmHg 43%
    12:00 +30°C° 0 mm 2 m/S 655 mmHg 38%
    13:00 +31°C° 0,1 mm 3 m/S 655 mmHg 37%
    14:00 +31°C° 0,1 mm 3 m/S 654 mmHg 37%
    15:00 +33°C° 0,1 mm 3 m/S 654 mmHg 36%
    16:00 +31°C° 0,5 mm 3 m/S 654 mmHg 40%
    17:00 +30°C° 0,5 mm 3 m/S 654 mmHg 43%
    18:00 +29°C° 0,5 mm 3 m/S 654 mmHg 47%
    19:00 +27°C° 0,4 mm 3 m/S 654 mmHg 53%
    20:00 +25°C° 0,4 mm 3 m/S 654 mmHg 59%
    21:00 +22°C° 0,4 mm 3 m/S 654 mmHg 65%
    22:00 +22°C° 0,2 mm 3 m/S 654 mmHg 67%
    23:00 +21°C° 0,2 mm 3 m/S 654 mmHg 69%

    23 Juli, Montag

    Zeit Temperatur Niederschläge Wind Luftdruck Luftfeuchtigkeit
    00:00 +21°C° 0,2 mm 3 m/S 654 mmHg 70%
    01:00 +20°C° 0,1 mm 3 m/S 653 mmHg 72%
    02:00 +20°C° 0,1 mm 2 m/S 653 mmHg 73%
    03:00 +19°C° 0,1 mm 2 m/S 653 mmHg 74%
    04:00 +19°C° 0 mm 2 m/S 653 mmHg 72%
    05:00 +20°C° 0 mm 2 m/S 653 mmHg 71%
    06:00 +20°C° 0 mm 2 m/S 654 mmHg 69%
    07:00 +23°C° 0 mm 2 m/S 654 mmHg 62%
    08:00 +25°C° 0 mm 2 m/S 654 mmHg 54%
    09:00 +27°C° 0 mm 2 m/S 654 mmHg 47%
    10:00 +29°C° 0,2 mm 2 m/S 654 mmHg 43%
    11:00 +30°C° 0,2 mm 2 m/S 654 mmHg 40%
    12:00 +31°C° 0,2 mm 2 m/S 654 mmHg 36%
    13:00 +32°C° 0,4 mm 2 m/S 654 mmHg 36%
    14:00 +32°C° 0,4 mm 2 m/S 653 mmHg 36%
    15:00 +33°C° 0,4 mm 3 m/S 653 mmHg 35%
    16:00 +31°C° 0,6 mm 3 m/S 653 mmHg 39%
    17:00 +30°C° 0,6 mm 3 m/S 653 mmHg 42%
    18:00 +29°C° 0,6 mm 3 m/S 653 mmHg 46%
    19:00 +27°C° 0,4 mm 3 m/S 653 mmHg 52%
    20:00 +25°C° 0,4 mm 3 m/S 653 mmHg 58%
    21:00 +22°C° 0,4 mm 3 m/S 653 mmHg 64%
    22:00 +22°C° 0,3 mm 3 m/S 654 mmHg 65%
    23:00 +21°C° 0,3 mm 2 m/S 654 mmHg 67%

    24 Juli, Dienstag

    Zeit Temperatur Niederschläge Wind Luftdruck Luftfeuchtigkeit
    00:00 +21°C° 0,3 mm 2 m/S 654 mmHg 68%
    01:00 +20°C° 0,1 mm 2 m/S 654 mmHg 69%
    02:00 +20°C° 0,1 mm 2 m/S 654 mmHg 70%
    03:00 +20°C° 0,1 mm 2 m/S 653 mmHg 71%
    04:00 +20°C° 0 mm 2 m/S 654 mmHg 69%
    05:00 +20°C° 0 mm 2 m/S 654 mmHg 67%
    06:00 +22°C° 0 mm 1 m/S 654 mmHg 66%
    07:00 +24°C° 0 mm 1 m/S 655 mmHg 58%
    08:00 +26°C° 0 mm 1 m/S 655 mmHg 49%
    09:00 +29°C° 0 mm 1 m/S 655 mmHg 41%
    10:00 +30°C° 0 mm 2 m/S 655 mmHg 37%
    11:00 +32°C° 0 mm 2 m/S 655 mmHg 34%
    12:00 +34°C° 0 mm 2 m/S 655 mmHg 30%
    13:00 +34°C° 0 mm 2 m/S 655 mmHg 29%
    14:00 +35°C° 0 mm 2 m/S 655 mmHg 28%
    15:00 +36°C° 0 mm 2 m/S 655 mmHg 27%
    16:00 +35°C° 0 mm 2 m/S 655 mmHg 30%
    17:00 +34°C° 0 mm 2 m/S 655 mmHg 34%
    18:00 +32°C° 0 mm 2 m/S 655 mmHg 37%
    19:00 +30°C° 0,1 mm 2 m/S 655 mmHg 45%
    20:00 +28°C° 0,1 mm 3 m/S 655 mmHg 53%
    21:00 +25°C° 0,1 mm 3 m/S 655 mmHg 61%
    22:00 +25°C° 0 mm 3 m/S 655 mmHg 61%
    23:00 +24°C° 0 mm 3 m/S 655 mmHg 62%
    Mehr zeigen